Time,TemperatureF,DewpointF,PressureIn,WindDirection,WindDirectionDegrees,WindSpeedMPH,WindSpeedGustMPH,Humidity,HourlyPrecipIn,Conditions,Clouds,dailyrainin,SolarRadiationWatts/m^2,SoftwareType,DateUTC
2013-03-14 00:00:00,50.5,27.1,30.09,West,273,5.0,7.0,40,0.00,,,0.00,0.0,meteohub,2013-03-14 04:00:00,
2013-03-14 00:05:00,50.5,27.1,30.08,West,273,2.0,9.0,40,0.00,,,0.00,0.0,meteohub,2013-03-14 04:05:00,
2013-03-14 00:10:00,50.4,27.0,30.09,NW,308,2.0,9.0,40,0.00,,,0.00,0.0,meteohub,2013-03-14 04:10:00,
2013-03-14 00:15:00,50.2,26.8,30.09,NW,307,2.0,9.0,40,0.00,,,0.00,0.0,meteohub,2013-03-14 04:15:00,
2013-03-14 00:20:00,50.2,26.8,30.09,NW,323,4.0,8.0,40,0.00,,,0.00,0.0,meteohub,2013-03-14 04:20:00,
2013-03-14 00:25:00,50.2,27.3,30.09,NNW,343,0.0,6.0,41,0.00,,,0.00,0.0,meteohub,2013-03-14 04:25:00,
2013-03-14 00:30:00,49.8,27.1,30.09,WNW,291,1.0,6.0,41,0.00,,,0.00,0.0,meteohub,2013-03-14 04:30:00,
2013-03-14 00:35:00,49.8,27.7,30.09,WNW,302,2.0,6.0,42,0.00,,,0.00,0.0,meteohub,2013-03-14 04:35:00,
2013-03-14 00:40:00,49.6,27.5,30.10,NE,55,1.0,6.0,42,0.00,,,0.00,0.0,meteohub,2013-03-14 04:40:00,
2013-03-14 00:45:00,49.3,27.7,30.10,WNW,296,1.0,6.0,43,0.00,,,0.00,0.0,meteohub,2013-03-14 04:45:00,
2013-03-14 00:50:00,49.1,27.5,30.10,NW,322,0.0,4.0,43,0.00,,,0.00,0.0,meteohub,2013-03-14 04:50:00,
2013-03-14 00:55:00,48.7,27.9,30.10,NW,320,1.0,4.0,44,0.00,,,0.00,0.0,meteohub,2013-03-14 04:55:00,
2013-03-14 01:00:00,48.4,28.0,30.10,NNW,345,1.0,4.0,45,0.00,,,0.00,0.0,meteohub,2013-03-14 05:00:00,
2013-03-14 01:05:00,48.0,27.7,30.11,North,0,2.0,5.0,45,0.00,,,0.00,0.0,meteohub,2013-03-14 05:05:00,
2013-03-14 01:10:00,48.0,27.7,30.11,NNW,345,3.0,5.0,45,0.00,,,0.00,0.0,meteohub,2013-03-14 05:10:00,
2013-03-14 01:15:00,47.8,27.0,30.11,NNW,327,0.0,5.0,44,0.00,,,0.00,0.0,meteohub,2013-03-14 05:15:00,
2013-03-14 01:20:00,47.7,26.8,30.11,NW,310,1.0,5.0,44,0.00,,,0.00,0.0,meteohub,2013-03-14 05:20:00,
2013-03-14 01:25:00,47.5,26.6,30.11,North,5,1.0,5.0,44,0.00,,,0.00,0.0,meteohub,2013-03-14 05:25:00,
2013-03-14 01:30:00,47.1,26.8,30.11,NNW,337,0.0,5.0,45,0.00,,,0.00,0.0,meteohub,2013-03-14 05:30:00,
2013-03-14 01:35:00,47.1,26.8,30.11,WNW,300,1.0,6.0,45,0.00,,,0.00,0.0,meteohub,2013-03-14 05:35:00,
2013-03-14 01:40:00,46.8,27.1,30.12,NNE,12,2.0,6.0,46,0.00,,,0.00,0.0,meteohub,2013-03-14 05:40:00,
2013-03-14 01:45:00,46.8,26.6,30.12,North,9,2.0,4.0,45,0.00,,,0.00,0.0,meteohub,2013-03-14 05:45:00,
2013-03-14 01:50:00,46.6,26.4,30.12,NNW,344,2.0,5.0,45,0.00,,,0.00,0.0,meteohub,2013-03-14 05:50:00,
2013-03-14 01:55:00,46.2,26.6,30.12,NE,50,0.0,5.0,46,0.00,,,0.00,0.0,meteohub,2013-03-14 05:55:00,
2013-03-14 02:00:00,46.2,26.1,30.12,West,279,0.0,5.0,45,0.00,,,0.00,0.0,meteohub,2013-03-14 06:00:00,
2013-03-14 02:05:00,46.2,25.0,30.12,WNW,293,2.0,5.0,43,0.00,,,0.00,0.0,meteohub,2013-03-14 06:05:00,
2013-03-14 02:10:00,46.0,24.8,30.13,WNW,299,3.0,5.0,43,0.00,,,0.00,0.0,meteohub,2013-03-14 06:10:00,
2013-03-14 02:15:00,45.9,24.6,30.13,NW,318,6.0,6.0,43,0.00,,,0.00,0.0,meteohub,2013-03-14 06:15:00,
2013-03-14 02:20:00,45.9,24.6,30.13,NW,304,1.0,7.0,43,0.00,,,0.00,0.0,meteohub,2013-03-14 06:20:00,
2013-03-14 02:25:00,45.5,23.7,30.13,WSW,242,1.0,7.0,42,0.00,,,0.00,0.0,meteohub,2013-03-14 06:25:00,
2013-03-14 02:30:00,45.3,24.1,30.13,East,96,1.0,7.0,43,0.00,,,0.00,0.0,meteohub,2013-03-14 06:30:00,
2013-03-14 02:36:00,45.1,23.4,30.13,NNE,18,1.0,6.0,42,0.00,,,0.00,0.0,meteohub,2013-03-14 06:36:00,
2013-03-14 02:41:00,45.0,23.7,30.14,NNE,17,3.0,6.0,43,0.00,,,0.00,0.0,meteohub,2013-03-14 06:41:00,
2013-03-14 02:46:00,44.8,23.7,30.14,NW,309,0.0,7.0,43,0.00,,,0.00,0.0,meteohub,2013-03-14 06:46:00,
2013-03-14 02:51:00,44.8,23.7,30.14,NNW,345,1.0,7.0,43,0.00,,,0.00,0.0,meteohub,2013-03-14 06:51:00,
2013-03-14 02:56:00,44.4,23.9,30.14,NNW,328,0.0,7.0,44,0.00,,,0.00,0.0,meteohub,2013-03-14 06:56:00,
2013-03-14 03:01:00,44.2,24.3,30.14,NNE,18,1.0,9.0,45,0.00,,,0.00,0.0,meteohub,2013-03-14 07:01:00,
2013-03-14 03:06:00,43.9,23.9,30.14,WNW,302,4.0,9.0,45,0.00,,,0.00,0.0,meteohub,2013-03-14 07:06:00,
2013-03-14 03:11:00,43.7,24.3,30.15,NW,313,1.0,6.0,46,0.00,,,0.00,0.0,meteohub,2013-03-14 07:11:00,
2013-03-14 03:16:00,43.7,24.3,30.15,WNW,290,0.0,6.0,46,0.00,,,0.00,0.0,meteohub,2013-03-14 07:16:00,
2013-03-14 03:21:00,43.3,23.9,30.16,WNW,303,0.0,6.0,46,0.00,,,0.00,0.0,meteohub,2013-03-14 07:21:00,
2013-03-14 03:26:00,43.2,24.3,30.16,NW,304,0.0,5.0,47,0.00,,,0.00,0.0,meteohub,2013-03-14 07:26:00,
2013-03-14 03:31:00,42.8,24.4,30.16,NNW,346,1.0,3.0,48,0.00,,,0.00,0.0,meteohub,2013-03-14 07:31:00,
2013-03-14 03:36:00,42.6,24.3,30.15,NNW,344,2.0,3.0,48,0.00,,,0.00,0.0,meteohub,2013-03-14 07:36:00,
2013-03-14 03:41:00,42.4,24.6,30.15,NNW,342,1.0,3.0,49,0.00,,,0.00,0.0,meteohub,2013-03-14 07:41:00,
2013-03-14 03:47:00,42.1,24.8,30.16,NNW,329,1.0,2.0,50,0.00,,,0.00,0.0,meteohub,2013-03-14 07:47:00,
2013-03-14 03:52:00,41.7,24.4,30.16,NNW,327,2.0,2.0,50,0.00,,,0.00,0.0,meteohub,2013-03-14 07:52:00,
2013-03-14 03:57:00,41.7,25.0,30.16,NNW,327,0.0,3.0,51,0.00,,,0.00,0.0,meteohub,2013-03-14 07:57:00,
2013-03-14 04:02:00,41.7,25.0,30.17,NW,313,1.0,3.0,51,0.00,,,0.00,0.0,meteohub,2013-03-14 08:02:00,
2013-03-14 04:07:00,41.4,25.0,30.16,NW,313,1.0,3.0,52,0.00,,,0.00,0.0,meteohub,2013-03-14 08:07:00,
2013-03-14 04:12:00,40.8,25.0,30.16,NW,313,0.0,3.0,53,0.00,,,0.00,0.0,meteohub,2013-03-14 08:12:00,
2013-03-14 04:17:00,40.6,25.3,30.16,NW,313,0.0,2.0,54,0.00,,,0.00,0.0,meteohub,2013-03-14 08:17:00,
2013-03-14 04:22:00,40.5,25.2,30.16,NW,319,0.0,3.0,54,0.00,,,0.00,0.0,meteohub,2013-03-14 08:22:00,
2013-03-14 04:27:00,40.5,25.2,30.16,NW,311,1.0,3.0,54,0.00,,,0.00,0.0,meteohub,2013-03-14 08:27:00,
2013-03-14 04:32:00,40.3,25.3,30.16,NW,309,1.0,3.0,55,0.00,,,0.00,0.0,meteohub,2013-03-14 08:32:00,
2013-03-14 04:37:00,40.1,25.2,30.16,NW,309,0.0,2.0,55,0.00,,,0.00,0.0,meteohub,2013-03-14 08:37:00,
2013-03-14 04:42:00,39.7,25.3,30.16,NW,309,1.0,2.0,56,0.00,,,0.00,0.0,meteohub,2013-03-14 08:42:00,
2013-03-14 04:47:00,39.7,25.3,30.16,NW,312,1.0,3.0,56,0.00,,,0.00,0.0,meteohub,2013-03-14 08:47:00,
2013-03-14 04:52:00,39.6,25.2,30.16,NW,311,1.0,3.0,56,0.00,,,0.00,0.0,meteohub,2013-03-14 08:52:00,
2013-03-14 04:57:00,39.6,25.2,30.17,West,281,0.0,4.0,56,0.00,,,0.00,0.0,meteohub,2013-03-14 08:57:00,
2013-03-14 05:02:00,39.4,25.0,30.17,West,281,0.0,4.0,56,0.00,,,0.00,0.0,meteohub,2013-03-14 09:02:00,
2013-03-14 05:07:00,39.2,24.8,30.17,WNW,289,0.0,4.0,56,0.00,,,0.00,0.0,meteohub,2013-03-14 09:07:00,
2013-03-14 05:12:00,39.4,24.6,30.16,NW,321,1.0,3.0,55,0.00,,,0.00,0.0,meteohub,2013-03-14 09:12:00,
2013-03-14 05:17:00,39.6,24.8,30.16,NNW,344,2.0,4.0,55,0.00,,,0.00,0.0,meteohub,2013-03-14 09:17:00,
2013-03-14 05:22:00,39.7,24.4,30.16,NNW,346,1.0,5.0,54,0.00,,,0.00,0.0,meteohub,2013-03-14 09:22:00,
2013-03-14 05:27:00,39.9,24.6,30.16,WNW,293,0.0,5.0,54,0.00,,,0.00,0.0,meteohub,2013-03-14 09:27:00,
2013-03-14 05:32:00,39.9,24.6,30.17,NNW,348,0.0,5.0,54,0.00,,,0.00,0.0,meteohub,2013-03-14 09:32:00,
2013-03-14 05:37:00,39.9,24.6,30.17,WNW,303,2.0,5.0,54,0.00,,,0.00,0.0,meteohub,2013-03-14 09:37:00,
2013-03-14 05:42:00,39.9,24.6,30.17,NW,307,2.0,3.0,54,0.00,,,0.00,0.0,meteohub,2013-03-14 09:42:00,
2013-03-14 05:47:00,39.9,24.6,30.18,NW,306,1.0,4.0,54,0.00,,,0.00,0.0,meteohub,2013-03-14 09:47:00,
2013-03-14 05:52:00,39.6,24.8,30.18,NNW,346,0.0,4.0,55,0.00,,,0.00,0.0,meteohub,2013-03-14 09:52:00,
2013-03-14 05:57:00,39.6,24.8,30.18,NW,325,0.0,5.0,55,0.00,,,0.00,0.0,meteohub,2013-03-14 09:57:00,
2013-03-14 06:02:00,39.4,24.6,30.19,NW,313,2.0,5.0,55,0.00,,,0.00,0.0,meteohub,2013-03-14 10:02:00,
2013-03-14 06:07:00,39.6,24.8,30.19,WNW,298,3.0,5.0,55,0.00,,,0.00,0.0,meteohub,2013-03-14 10:07:00,
2013-03-14 06:12:00,39.7,25.3,30.19,NW,314,2.0,4.0,56,0.00,,,0.00,0.0,meteohub,2013-03-14 10:12:00,
2013-03-14 06:17:00,39.7,25.3,30.19,NNW,331,1.0,5.0,56,0.00,,,0.00,0.0,meteohub,2013-03-14 10:17:00,
2013-03-14 06:22:00,39.6,25.2,30.20,NNW,342,1.0,5.0,56,0.00,,,0.00,0.0,meteohub,2013-03-14 10:22:00,
2013-03-14 06:27:00,39.4,25.3,30.20,NW,314,1.0,5.0,57,0.00,,,0.00,0.0,meteohub,2013-03-14 10:27:00,
2013-03-14 06:32:00,39.4,25.3,30.21,NW,319,0.0,4.0,57,0.00,,,0.00,0.0,meteohub,2013-03-14 10:32:00,
2013-03-14 06:37:00,39.2,25.2,30.21,NW,311,0.0,4.0,57,0.00,,,0.00,0.0,meteohub,2013-03-14 10:37:00,
2013-03-14 06:42:00,39.0,25.2,30.21,NNW,330,1.0,4.0,57,0.00,,,0.00,0.0,meteohub,2013-03-14 10:42:00,
2013-03-14 06:47:00,39.0,25.2,30.21,North,0,1.0,4.0,57,0.00,,,0.00,0.0,meteohub,2013-03-14 10:47:00,
2013-03-14 06:52:00,39.0,25.2,30.22,WNW,295,1.0,4.0,57,0.00,,,0.00,0.0,meteohub,2013-03-14 10:52:00,
2013-03-14 06:57:00,38.8,24.4,30.22,NNW,328,1.0,4.0,56,0.00,,,0.00,0.0,meteohub,2013-03-14 10:57:00,
2013-03-14 07:02:00,38.8,24.4,30.22,NNW,331,2.0,4.0,56,0.00,,,0.00,0.0,meteohub,2013-03-14 11:02:00,
2013-03-14 07:07:00,38.8,24.4,30.22,NNW,328,3.0,5.0,56,0.00,,,0.00,0.0,meteohub,2013-03-14 11:07:00,
2013-03-14 07:13:00,38.7,24.8,30.23,NW,321,1.0,5.0,57,0.00,,,0.00,0.0,meteohub,2013-03-14 11:13:00,
2013-03-14 07:18:00,38.5,24.6,30.23,North,0,1.0,5.0,57,0.00,,,0.00,0.0,meteohub,2013-03-14 11:18:00,
2013-03-14 07:23:00,38.5,24.6,30.23,NW,319,7.0,7.0,57,0.00,,,0.00,0.0,meteohub,2013-03-14 11:23:00,
2013-03-14 07:28:00,38.1,24.6,30.24,NNW,338,2.0,3.0,58,0.00,,,0.00,0.0,meteohub,2013-03-14 11:28:00,
2013-03-14 07:33:00,38.1,24.3,30.24,NNW,330,4.0,7.0,57,0.00,,,0.00,0.0,meteohub,2013-03-14 11:33:00,
2013-03-14 07:38:00,37.9,23.7,30.24,North,5,3.0,7.0,56,0.00,,,0.00,7.0,meteohub,2013-03-14 11:38:00,
2013-03-14 07:43:00,37.9,23.7,30.24,South,176,0.0,5.0,56,0.00,,,0.00,11.0,meteohub,2013-03-14 11:43:00,
2013-03-14 07:48:00,37.9,23.2,30.25,NW,308,2.0,5.0,55,0.00,,,0.00,14.0,meteohub,2013-03-14 11:48:00,
2013-03-14 07:53:00,37.8,23.0,30.25,NNW,336,2.0,6.0,55,0.00,,,0.00,18.0,meteohub,2013-03-14 11:53:00,
2013-03-14 07:58:00,37.8,22.6,30.26,NW,318,0.0,7.0,54,0.00,,,0.00,21.0,meteohub,2013-03-14 11:58:00,
2013-03-14 08:03:00,37.9,22.8,30.26,NNE,19,0.0,7.0,54,0.00,,,0.00,25.0,meteohub,2013-03-14 12:03:00,
2013-03-14 08:08:00,37.8,21.7,30.26,NNW,330,4.0,7.0,52,0.00,,,0.00,30.0,meteohub,2013-03-14 12:08:00,
2013-03-14 08:13:00,37.9,22.3,30.27,NW,317,1.0,6.0,53,0.00,,,0.00,35.0,meteohub,2013-03-14 12:13:00,
2013-03-14 08:18:00,37.9,22.3,30.27,West,269,1.0,7.0,53,0.00,,,0.00,39.0,meteohub,2013-03-14 12:18:00,
2013-03-14 08:23:00,38.1,22.1,30.27,West,265,1.0,9.0,52,0.00,,,0.00,42.0,meteohub,2013-03-14 12:23:00,
2013-03-14 08:28:00,38.5,22.5,30.27,NNW,342,2.0,9.0,52,0.00,,,0.00,44.0,meteohub,2013-03-14 12:28:00,
2013-03-14 08:33:00,38.7,22.1,30.27,NNW,331,2.0,9.0,51,0.00,,,0.00,47.0,meteohub,2013-03-14 12:33:00,
2013-03-14 08:38:00,38.8,22.3,30.28,West,279,2.0,8.0,51,0.00,,,0.00,49.0,meteohub,2013-03-14 12:38:00,
2013-03-14 08:43:00,39.0,21.9,30.28,NW,326,5.0,6.0,50,0.00,,,0.00,134.0,meteohub,2013-03-14 12:43:00,
2013-03-14 08:48:00,39.4,22.3,30.28,NE,43,1.0,7.0,50,0.00,,,0.00,230.0,meteohub,2013-03-14 12:48:00,
2013-03-14 08:53:00,39.7,21.7,30.28,NNW,334,3.0,7.0,48,0.00,,,0.00,251.0,meteohub,2013-03-14 12:53:00,
2013-03-14 08:58:00,39.9,21.4,30.28,NW,315,3.0,8.0,47,0.00,,,0.00,193.0,meteohub,2013-03-14 12:58:00,
2013-03-14 09:03:00,40.5,21.7,30.28,NW,321,2.0,8.0,47,0.00,,,0.00,283.0,meteohub,2013-03-14 13:03:00,
2013-03-14 09:08:00,40.8,21.2,30.29,NNW,348,2.0,8.0,45,0.00,,,0.00,302.0,meteohub,2013-03-14 13:08:00,
2013-03-14 09:13:00,41.4,21.6,30.29,North,5,2.0,8.0,45,0.00,,,0.00,323.0,meteohub,2013-03-14 13:13:00,
2013-03-14 09:18:00,41.7,21.4,30.29,NE,44,3.0,8.0,44,0.00,,,0.00,343.0,meteohub,2013-03-14 13:18:00,
2013-03-14 09:23:00,41.9,21.6,30.29,NE,53,0.0,8.0,44,0.00,,,0.00,360.0,meteohub,2013-03-14 13:23:00,
2013-03-14 09:28:00,42.4,22.1,30.29,NW,313,1.0,5.0,44,0.00,,,0.00,381.0,meteohub,2013-03-14 13:28:00,
2013-03-14 09:33:00,42.6,22.3,30.29,NNW,327,1.0,5.0,44,0.00,,,0.00,403.0,meteohub,2013-03-14 13:33:00,
2013-03-14 09:38:00,42.8,21.9,30.29,NNW,338,5.0,7.0,43,0.00,,,0.00,424.0,meteohub,2013-03-14 13:38:00,
2013-03-14 09:43:00,43.2,22.1,30.29,NE,47,3.0,8.0,43,0.00,,,0.00,439.0,meteohub,2013-03-14 13:43:00,
2013-03-14 09:48:00,43.0,22.6,30.29,NNW,345,3.0,8.0,44,0.00,,,0.00,459.0,meteohub,2013-03-14 13:48:00,
2013-03-14 09:53:00,43.3,21.7,30.29,NNE,17,2.0,10.0,42,0.00,,,0.00,476.0,meteohub,2013-03-14 13:53:00,
2013-03-14 09:58:00,43.9,22.3,30.29,WNW,292,0.0,10.0,42,0.00,,,0.00,494.0,meteohub,2013-03-14 13:58:00,
2013-03-14 10:04:00,44.6,23.0,30.29,NW,314,2.0,10.0,42,0.00,,,0.00,512.0,meteohub,2013-03-14 14:04:00,
2013-03-14 10:09:00,44.8,22.5,30.29,West,265,3.0,6.0,41,0.00,,,0.00,529.0,meteohub,2013-03-14 14:09:00,
2013-03-14 10:13:00,44.8,23.0,30.29,NW,310,2.0,6.0,42,0.00,,,0.00,545.0,meteohub,2013-03-14 14:13:00,
2013-03-14 10:19:00,44.8,23.0,30.29,NW,326,2.0,7.0,42,0.00,,,0.00,563.0,meteohub,2013-03-14 14:19:00,
2013-03-14 10:24:00,45.1,22.8,30.29,NW,318,1.0,7.0,41,0.00,,,0.00,580.0,meteohub,2013-03-14 14:24:00,
2013-03-14 10:29:00,45.1,22.3,30.30,WNW,291,2.0,6.0,40,0.00,,,0.00,594.0,meteohub,2013-03-14 14:29:00,
2013-03-14 10:34:00,45.0,23.2,30.30,West,279,6.0,10.0,42,0.00,,,0.00,610.0,meteohub,2013-03-14 14:34:00,
2013-03-14 10:39:00,45.0,23.7,30.30,NE,53,2.0,10.0,43,0.00,,,0.00,624.0,meteohub,2013-03-14 14:39:00,
2013-03-14 10:44:00,46.2,24.4,30.29,East,100,1.0,10.0,42,0.00,,,0.00,640.0,meteohub,2013-03-14 14:44:00,
2013-03-14 10:49:00,46.2,23.2,30.29,WNW,294,1.0,8.0,40,0.00,,,0.00,656.0,meteohub,2013-03-14 14:49:00,
2013-03-14 10:54:00,45.9,23.5,30.28,NW,311,2.0,8.0,41,0.00,,,0.00,671.0,meteohub,2013-03-14 14:54:00,
2013-03-14 10:59:00,46.0,23.7,30.28,NE,55,1.0,6.0,41,0.00,,,0.00,686.0,meteohub,2013-03-14 14:59:00,
2013-03-14 11:04:00,46.9,25.0,30.28,WNW,298,2.0,5.0,42,0.00,,,0.00,694.0,meteohub,2013-03-14 15:04:00,
2013-03-14 11:09:00,47.3,24.3,30.28,NW,313,5.0,6.0,40,0.00,,,0.00,708.0,meteohub,2013-03-14 15:09:00,
2013-03-14 11:14:00,47.5,25.0,30.28,NE,39,5.0,6.0,41,0.00,,,0.00,721.0,meteohub,2013-03-14 15:14:00,
2013-03-14 11:19:00,47.7,23.9,30.28,NNW,331,2.0,6.0,39,0.00,,,0.00,733.0,meteohub,2013-03-14 15:19:00,
2013-03-14 11:24:00,47.5,25.0,30.27,WNW,301,4.0,6.0,41,0.00,,,0.00,744.0,meteohub,2013-03-14 15:24:00,
2013-03-14 11:29:00,48.0,23.5,30.27,WNW,293,2.0,6.0,38,0.00,,,0.00,759.0,meteohub,2013-03-14 15:29:00,
2013-03-14 11:34:00,48.0,23.5,30.27,NE,43,2.0,9.0,38,0.00,,,0.00,770.0,meteohub,2013-03-14 15:34:00,
2013-03-14 11:39:00,48.7,23.5,30.27,WNW,293,3.0,9.0,37,0.00,,,0.00,779.0,meteohub,2013-03-14 15:39:00,
2013-03-14 11:44:00,48.7,23.5,30.27,West,273,1.0,9.0,37,0.00,,,0.00,789.0,meteohub,2013-03-14 15:44:00,
2013-03-14 11:49:00,48.9,23.2,30.27,NNW,346,3.0,7.0,36,0.00,,,0.00,798.0,meteohub,2013-03-14 15:49:00,
2013-03-14 11:54:00,49.5,24.3,30.26,West,260,3.0,7.0,37,0.00,,,0.00,809.0,meteohub,2013-03-14 15:54:00,
2013-03-14 11:59:00,49.5,23.5,30.26,WNW,301,3.0,7.0,36,0.00,,,0.00,819.0,meteohub,2013-03-14 15:59:00,
2013-03-14 12:04:00,48.9,24.4,30.25,WSW,239,4.0,5.0,38,0.00,,,0.00,826.0,meteohub,2013-03-14 16:04:00,
2013-03-14 12:09:00,49.5,25.5,30.25,NW,310,5.0,5.0,39,0.00,,,0.00,833.0,meteohub,2013-03-14 16:09:00,
2013-03-14 12:14:00,50.2,23.5,30.25,WNW,290,2.0,6.0,35,0.00,,,0.00,840.0,meteohub,2013-03-14 16:14:00,
2013-03-14 12:19:00,49.6,23.7,30.25,WSW,252,4.0,6.0,36,0.00,,,0.00,846.0,meteohub,2013-03-14 16:19:00,
2013-03-14 12:24:00,49.3,23.5,30.25,SW,231,1.0,11.0,36,0.00,,,0.00,851.0,meteohub,2013-03-14 16:24:00,
2013-03-14 12:29:00,49.5,24.3,30.25,NE,34,1.0,11.0,37,0.00,,,0.00,854.0,meteohub,2013-03-14 16:29:00,
2013-03-14 12:34:00,50.2,25.0,30.25,West,261,5.0,11.0,37,0.00,,,0.00,865.0,meteohub,2013-03-14 16:34:00,
2013-03-14 12:39:00,50.7,24.8,30.25,NE,55,3.0,9.0,36,0.00,,,0.00,867.0,meteohub,2013-03-14 16:39:00,
2013-03-14 12:44:00,51.4,24.6,30.25,West,269,8.0,9.0,35,0.00,,,0.00,872.0,meteohub,2013-03-14 16:44:00,
2013-03-14 12:49:00,51.3,25.2,30.25,WNW,291,2.0,9.0,36,0.00,,,0.00,881.0,meteohub,2013-03-14 16:49:00,
2013-03-14 12:54:00,51.1,24.4,30.25,WSW,254,3.0,8.0,35,0.00,,,0.00,884.0,meteohub,2013-03-14 16:54:00,
2013-03-14 12:59:00,50.5,23.9,30.25,WNW,284,3.0,8.0,35,0.00,,,0.00,886.0,meteohub,2013-03-14 16:59:00,
2013-03-14 13:04:00,51.3,25.2,30.25,NNW,342,2.0,7.0,36,0.00,,,0.00,888.0,meteohub,2013-03-14 17:04:00,
2013-03-14 13:10:00,51.4,24.1,30.25,SW,233,2.0,6.0,34,0.00,,,0.00,895.0,meteohub,2013-03-14 17:10:00,
2013-03-14 13:15:00,51.3,23.9,30.25,West,263,2.0,9.0,34,0.00,,,0.00,893.0,meteohub,2013-03-14 17:15:00,
2013-03-14 13:20:00,52.0,25.2,30.24,NNE,32,3.0,9.0,35,0.00,,,0.00,893.0,meteohub,2013-03-14 17:20:00,
2013-03-14 13:25:00,52.5,24.3,30.24,WNW,290,7.0,9.0,33,0.00,,,0.00,893.0,meteohub,2013-03-14 17:25:00,
2013-03-14 13:30:00,52.2,23.9,30.24,West,274,2.0,9.0,33,0.00,,,0.00,896.0,meteohub,2013-03-14 17:30:00,
2013-03-14 13:35:00,52.3,25.5,30.24,NW,308,2.0,7.0,35,0.00,,,0.00,891.0,meteohub,2013-03-14 17:35:00,
2013-03-14 13:40:00,52.7,24.4,30.24,North,0,2.0,7.0,33,0.00,,,0.00,895.0,meteohub,2013-03-14 17:40:00,
2013-03-14 13:45:00,52.5,25.0,30.24,WSW,252,2.0,7.0,34,0.00,,,0.00,889.0,meteohub,2013-03-14 17:45:00,
2013-03-14 13:50:00,53.1,23.9,30.23,WNW,285,6.0,8.0,32,0.00,,,0.00,889.0,meteohub,2013-03-14 17:50:00,
2013-03-14 13:55:00,52.5,25.0,30.23,NE,39,1.0,8.0,34,0.00,,,0.00,884.0,meteohub,2013-03-14 17:55:00,
2013-03-14 14:00:00,53.2,23.4,30.23,WNW,301,7.0,8.0,31,0.00,,,0.00,884.0,meteohub,2013-03-14 18:00:00,
2013-03-14 14:05:00,53.4,23.5,30.23,WSW,242,7.0,9.0,31,0.00,,,0.00,879.0,meteohub,2013-03-14 18:05:00,
2013-03-14 14:10:00,53.1,23.9,30.22,West,263,2.0,9.0,32,0.00,,,0.00,874.0,meteohub,2013-03-14 18:10:00,
2013-03-14 14:15:00,54.0,24.1,30.22,West,271,9.0,9.0,31,0.00,,,0.00,868.0,meteohub,2013-03-14 18:15:00,
2013-03-14 14:20:00,54.1,24.1,30.22,NNW,340,1.0,9.0,31,0.00,,,0.00,860.0,meteohub,2013-03-14 18:20:00,
2013-03-14 14:25:00,53.4,21.9,30.22,SW,221,2.0,9.0,29,0.00,,,0.00,853.0,meteohub,2013-03-14 18:25:00,
2013-03-14 14:30:00,54.3,23.5,30.23,NW,315,3.0,9.0,30,0.00,,,0.00,849.0,meteohub,2013-03-14 18:30:00,
2013-03-14 14:35:00,54.7,23.9,30.22,NNW,333,0.0,8.0,30,0.00,,,0.00,844.0,meteohub,2013-03-14 18:35:00,
2013-03-14 14:40:00,55.0,22.5,30.22,NW,317,2.0,6.0,28,0.00,,,0.00,800.0,meteohub,2013-03-14 18:40:00,
2013-03-14 14:46:00,54.1,21.7,30.22,West,281,0.0,11.0,28,0.00,,,0.00,824.0,meteohub,2013-03-14 18:46:00,
2013-03-14 14:51:00,54.3,22.6,30.22,WNW,299,3.0,11.0,29,0.00,,,0.00,810.0,meteohub,2013-03-14 18:51:00,
2013-03-14 14:56:00,54.0,22.5,30.21,WNW,292,1.0,11.0,29,0.00,,,0.00,744.0,meteohub,2013-03-14 18:56:00,
2013-03-14 15:02:00,54.9,24.1,30.20,WNW,291,4.0,11.0,30,0.00,,,0.00,717.0,meteohub,2013-03-14 19:02:00,
2013-03-14 15:12:00,55.2,22.6,30.20,NW,308,4.0,8.0,28,0.00,,,0.00,686.0,meteohub,2013-03-14 19:12:00,
2013-03-14 15:17:00,55.2,22.6,30.20,SW,232,2.0,8.0,28,0.00,,,0.00,719.0,meteohub,2013-03-14 19:17:00,
2013-03-14 15:22:00,55.2,22.6,30.20,WNW,286,1.0,7.0,28,0.00,,,0.00,413.0,meteohub,2013-03-14 19:22:00,
2013-03-14 15:27:00,55.6,23.0,30.19,WNW,286,4.0,7.0,28,0.00,,,0.00,353.0,meteohub,2013-03-14 19:27:00,
2013-03-14 15:32:00,55.4,24.4,30.19,NW,311,5.0,7.0,30,0.00,,,0.00,424.0,meteohub,2013-03-14 19:32:00,
2013-03-14 15:37:00,55.4,24.4,30.19,North,5,2.0,8.0,30,0.00,,,0.00,510.0,meteohub,2013-03-14 19:37:00,
2013-03-14 15:42:00,55.2,23.5,30.19,WSW,246,3.0,8.0,29,0.00,,,0.00,394.0,meteohub,2013-03-14 19:42:00,
2013-03-14 15:47:00,54.9,24.1,30.18,WNW,298,1.0,8.0,30,0.00,,,0.00,350.0,meteohub,2013-03-14 19:47:00,
2013-03-14 15:52:00,54.9,24.1,30.17,NNE,22,2.0,5.0,30,0.00,,,0.00,127.0,meteohub,2013-03-14 19:52:00,
2013-03-14 15:57:00,55.8,23.9,30.17,NNW,327,1.0,5.0,29,0.00,,,0.00,214.0,meteohub,2013-03-14 19:57:00,
2013-03-14 16:02:00,55.8,24.8,30.17,East,100,1.0,6.0,30,0.00,,,0.00,192.0,meteohub,2013-03-14 20:02:00,
2013-03-14 16:07:00,55.6,24.6,30.17,SSW,194,2.0,6.0,30,0.00,,,0.00,325.0,meteohub,2013-03-14 20:07:00,
2013-03-14 16:12:00,55.2,22.6,30.17,WSW,238,1.0,6.0,28,0.00,,,0.00,190.0,meteohub,2013-03-14 20:12:00,
2013-03-14 16:17:00,54.9,22.3,30.17,West,272,2.0,5.0,28,0.00,,,0.00,373.0,meteohub,2013-03-14 20:17:00,
2013-03-14 16:22:00,55.2,23.5,30.16,WNW,282,2.0,5.0,29,0.00,,,0.00,269.0,meteohub,2013-03-14 20:22:00,
2013-03-14 16:27:00,55.4,23.7,30.17,WNW,296,1.0,5.0,29,0.00,,,0.00,439.0,meteohub,2013-03-14 20:27:00,
2013-03-14 16:32:00,56.5,24.6,30.17,NNW,329,3.0,5.0,29,0.00,,,0.00,438.0,meteohub,2013-03-14 20:32:00,
2013-03-14 16:37:00,56.1,22.6,30.17,NNW,344,1.0,6.0,27,0.00,,,0.00,376.0,meteohub,2013-03-14 20:37:00,
2013-03-14 16:42:00,55.9,23.4,30.16,SW,234,2.0,6.0,28,0.00,,,0.00,315.0,meteohub,2013-03-14 20:42:00,
2013-03-14 16:47:00,55.8,22.3,30.16,NW,306,5.0,6.0,27,0.00,,,0.00,178.0,meteohub,2013-03-14 20:47:00,
2013-03-14 16:52:00,55.0,22.5,30.16,NNW,342,1.0,6.0,28,0.00,,,0.00,121.0,meteohub,2013-03-14 20:52:00,
2013-03-14 16:57:00,55.4,23.7,30.16,SW,236,3.0,6.0,29,0.00,,,0.00,220.0,meteohub,2013-03-14 20:57:00,
2013-03-14 17:02:00,55.0,23.4,30.15,West,281,2.0,6.0,29,0.00,,,0.00,239.0,meteohub,2013-03-14 21:02:00,
2013-03-14 17:07:00,55.2,22.6,30.16,NNW,342,2.0,6.0,28,0.00,,,0.00,149.0,meteohub,2013-03-14 21:07:00,
2013-03-14 17:12:00,55.0,22.5,30.15,NNE,23,0.0,6.0,28,0.00,,,0.00,148.0,meteohub,2013-03-14 21:12:00,
2013-03-14 17:17:00,55.8,24.8,30.15,WNW,300,3.0,5.0,30,0.00,,,0.00,134.0,meteohub,2013-03-14 21:17:00,
2013-03-14 17:22:00,55.8,23.9,30.15,West,281,5.0,5.0,29,0.00,,,0.00,125.0,meteohub,2013-03-14 21:22:00,
2013-03-14 17:27:00,55.9,24.1,30.15,North,355,1.0,5.0,29,0.00,,,0.00,70.0,meteohub,2013-03-14 21:27:00,
2013-03-14 17:32:00,55.9,23.4,30.15,West,259,4.0,5.0,28,0.00,,,0.00,144.0,meteohub,2013-03-14 21:32:00,
2013-03-14 17:37:00,55.6,23.0,30.15,WNW,300,3.0,8.0,28,0.00,,,0.00,149.0,meteohub,2013-03-14 21:37:00,
2013-03-14 17:42:00,55.0,21.7,30.15,WNW,290,1.0,8.0,27,0.00,,,0.00,91.0,meteohub,2013-03-14 21:42:00,
2013-03-14 17:47:00,55.0,23.4,30.15,WSW,252,3.0,8.0,29,0.00,,,0.00,60.0,meteohub,2013-03-14 21:47:00,
2013-03-14 17:53:00,55.0,24.1,30.15,NNE,16,1.0,6.0,30,0.00,,,0.00,76.0,meteohub,2013-03-14 21:53:00,
2013-03-14 17:58:00,54.9,23.2,30.15,East,90,0.0,6.0,29,0.00,,,0.00,67.0,meteohub,2013-03-14 21:58:00,
2013-03-14 18:03:00,54.7,23.0,30.15,WNW,301,1.0,6.0,29,0.00,,,0.00,107.0,meteohub,2013-03-14 22:03:00,
2013-03-14 18:08:00,55.0,23.4,30.15,WNW,295,1.0,4.0,29,0.00,,,0.00,83.0,meteohub,2013-03-14 22:08:00,
2013-03-14 18:13:00,55.0,23.4,30.15,WNW,284,1.0,4.0,29,0.00,,,0.00,62.0,meteohub,2013-03-14 22:13:00,
2013-03-14 18:18:00,54.9,23.2,30.15,NNW,330,2.0,6.0,29,0.00,,,0.00,130.0,meteohub,2013-03-14 22:18:00,
2013-03-14 18:23:00,54.7,23.0,30.15,WNW,290,0.0,6.0,29,0.00,,,0.00,97.0,meteohub,2013-03-14 22:23:00,
2013-03-14 18:28:00,54.9,23.2,30.15,North,5,1.0,6.0,29,0.00,,,0.00,37.0,meteohub,2013-03-14 22:28:00,
2013-03-14 18:33:00,54.5,23.7,30.15,WNW,295,1.0,5.0,30,0.00,,,0.00,35.0,meteohub,2013-03-14 22:33:00,
2013-03-14 18:38:00,54.3,23.5,30.15,NW,319,2.0,4.0,30,0.00,,,0.00,33.0,meteohub,2013-03-14 22:38:00,
2013-03-14 18:43:00,54.1,24.1,30.16,NW,318,2.0,4.0,31,0.00,,,0.00,67.0,meteohub,2013-03-14 22:43:00,
2013-03-14 18:48:00,54.0,24.1,30.17,WNW,287,3.0,3.0,31,0.00,,,0.00,26.0,meteohub,2013-03-14 22:48:00,
2013-03-14 18:53:00,53.4,23.5,30.17,WNW,286,1.0,4.0,31,0.00,,,0.00,25.0,meteohub,2013-03-14 22:53:00,
2013-03-14 18:58:00,53.4,23.5,30.17,WNW,284,1.0,5.0,31,0.00,,,0.00,21.0,meteohub,2013-03-14 22:58:00,
2013-03-14 19:03:00,53.2,24.1,30.17,WNW,292,0.0,5.0,32,0.00,,,0.00,18.0,meteohub,2013-03-14 23:03:00,
2013-03-14 19:08:00,53.1,23.9,30.17,WNW,303,0.0,5.0,32,0.00,,,0.00,14.0,meteohub,2013-03-14 23:08:00,
2013-03-14 19:13:00,52.5,24.3,30.17,WNW,303,0.0,3.0,33,0.00,,,0.00,12.0,meteohub,2013-03-14 23:13:00,
2013-03-14 19:18:00,52.0,24.4,30.17,WNW,303,0.0,3.0,34,0.00,,,0.00,9.0,meteohub,2013-03-14 23:18:00,
2013-03-14 19:23:00,51.4,24.6,30.17,WNW,303,0.0,2.0,35,0.00,,,0.00,7.0,meteohub,2013-03-14 23:23:00,
2013-03-14 19:28:00,50.9,24.8,30.17,WNW,303,0.0,1.0,36,0.00,,,0.00,0.0,meteohub,2013-03-14 23:28:00,
2013-03-14 19:33:00,50.2,25.5,30.17,WNW,303,0.0,0.0,38,0.00,,,0.00,0.0,meteohub,2013-03-14 23:33:00,
2013-03-14 19:38:00,49.5,26.1,30.17,WNW,303,0.0,0.0,40,0.00,,,0.00,0.0,meteohub,2013-03-14 23:38:00,
2013-03-14 19:43:00,48.7,26.6,30.17,WNW,303,0.0,0.0,42,0.00,,,0.00,0.0,meteohub,2013-03-14 23:43:00,
2013-03-14 19:48:00,48.2,27.3,30.17,WNW,303,0.0,0.0,44,0.00,,,0.00,0.0,meteohub,2013-03-14 23:48:00,
2013-03-14 19:53:00,47.8,27.5,30.17,WNW,303,0.0,0.0,45,0.00,,,0.00,0.0,meteohub,2013-03-14 23:53:00,
2013-03-14 19:58:00,47.8,27.5,30.17,WNW,303,0.0,0.0,45,0.00,,,0.00,0.0,meteohub,2013-03-14 23:58:00,
2013-03-14 20:03:00,47.1,27.9,30.17,WNW,303,0.0,0.0,47,0.00,,,0.00,0.0,meteohub,2013-03-15 00:03:00,
2013-03-14 20:08:00,46.8,27.7,30.17,WNW,303,0.0,0.0,47,0.00,,,0.00,0.0,meteohub,2013-03-15 00:08:00,
2013-03-14 20:13:00,46.0,28.4,30.17,WNW,303,0.0,0.0,50,0.00,,,0.00,0.0,meteohub,2013-03-15 00:13:00,
2013-03-14 20:18:00,45.7,28.0,30.17,WNW,303,0.0,0.0,50,0.00,,,0.00,0.0,meteohub,2013-03-15 00:18:00,
2013-03-14 20:23:00,45.5,28.4,30.17,WNW,303,0.0,0.0,51,0.00,,,0.00,0.0,meteohub,2013-03-15 00:23:00,
2013-03-14 20:28:00,45.1,28.6,30.17,WNW,303,0.0,0.0,52,0.00,,,0.00,0.0,meteohub,2013-03-15 00:28:00,
2013-03-14 20:33:00,44.8,28.8,30.17,WNW,303,0.0,0.0,53,0.00,,,0.00,0.0,meteohub,2013-03-15 00:33:00,
2013-03-14 20:38:00,44.4,28.8,30.18,WNW,303,0.0,0.0,54,0.00,,,0.00,0.0,meteohub,2013-03-15 00:38:00,
2013-03-14 20:44:00,44.2,29.1,30.18,WNW,303,0.0,0.0,55,0.00,,,0.00,0.0,meteohub,2013-03-15 00:44:00,
2013-03-14 20:49:00,44.1,28.9,30.18,WNW,303,0.0,0.0,55,0.00,,,0.00,0.0,meteohub,2013-03-15 00:49:00,
2013-03-14 20:54:00,43.5,28.9,30.18,WNW,303,0.0,0.0,56,0.00,,,0.00,0.0,meteohub,2013-03-15 00:54:00,
2013-03-14 20:59:00,43.0,28.8,30.18,WNW,303,0.0,0.0,57,0.00,,,0.00,0.0,meteohub,2013-03-15 00:59:00,
2013-03-14 21:04:00,43.0,29.3,30.18,WNW,303,0.0,0.0,58,0.00,,,0.00,0.0,meteohub,2013-03-15 01:04:00,
2013-03-14 21:09:00,42.6,29.7,30.18,WNW,303,0.0,0.0,60,0.00,,,0.00,0.0,meteohub,2013-03-15 01:09:00,
2013-03-14 21:14:00,42.6,29.3,30.18,WNW,303,0.0,0.0,59,0.00,,,0.00,0.0,meteohub,2013-03-15 01:14:00,
2013-03-14 21:19:00,41.9,29.5,30.18,WNW,303,0.0,0.0,61,0.00,,,0.00,0.0,meteohub,2013-03-15 01:19:00,
2013-03-14 21:24:00,41.5,29.5,30.18,WNW,303,0.0,0.0,62,0.00,,,0.00,0.0,meteohub,2013-03-15 01:24:00,
2013-03-14 21:29:00,41.5,29.5,30.17,WNW,303,0.0,0.0,62,0.00,,,0.00,0.0,meteohub,2013-03-15 01:29:00,
2013-03-14 21:34:00,41.4,29.3,30.17,WNW,303,0.0,0.0,62,0.00,,,0.00,0.0,meteohub,2013-03-15 01:34:00,
2013-03-14 21:39:00,40.6,29.5,30.17,WNW,303,0.0,0.0,64,0.00,,,0.00,0.0,meteohub,2013-03-15 01:39:00,
2013-03-14 21:44:00,40.6,29.5,30.17,WNW,303,0.0,0.0,64,0.00,,,0.00,0.0,meteohub,2013-03-15 01:44:00,
2013-03-14 21:49:00,40.5,29.7,30.18,WNW,303,0.0,0.0,65,0.00,,,0.00,0.0,meteohub,2013-03-15 01:49:00,
2013-03-14 21:54:00,40.8,30.4,30.18,WNW,303,0.0,0.0,66,0.00,,,0.00,0.0,meteohub,2013-03-15 01:54:00,
2013-03-14 21:59:00,40.6,30.2,30.17,WNW,303,0.0,0.0,66,0.00,,,0.00,0.0,meteohub,2013-03-15 01:59:00,
2013-03-14 22:04:00,40.3,30.2,30.17,WNW,303,0.0,0.0,67,0.00,,,0.00,0.0,meteohub,2013-03-15 02:04:00,
2013-03-14 22:09:00,39.7,30.0,30.17,WNW,303,0.0,0.0,68,0.00,,,0.00,0.0,meteohub,2013-03-15 02:09:00,
2013-03-14 22:14:00,39.6,29.8,30.18,WNW,303,0.0,0.0,68,0.00,,,0.00,0.0,meteohub,2013-03-15 02:14:00,
2013-03-14 22:19:00,39.7,30.0,30.18,WNW,303,0.0,0.0,68,0.00,,,0.00,0.0,meteohub,2013-03-15 02:19:00,
2013-03-14 22:24:00,39.6,30.2,30.18,WNW,303,0.0,0.0,69,0.00,,,0.00,0.0,meteohub,2013-03-15 02:24:00,
2013-03-14 22:29:00,39.6,30.6,30.18,WNW,303,0.0,0.0,70,0.00,,,0.00,0.0,meteohub,2013-03-15 02:29:00,
2013-03-14 22:34:00,39.6,30.6,30.18,WNW,303,0.0,0.0,70,0.00,,,0.00,0.0,meteohub,2013-03-15 02:34:00,
2013-03-14 22:39:00,39.0,30.0,30.18,WNW,303,0.0,0.0,70,0.00,,,0.00,0.0,meteohub,2013-03-15 02:39:00,
2013-03-14 22:44:00,38.8,30.6,30.19,WNW,303,0.0,0.0,72,0.00,,,0.00,0.0,meteohub,2013-03-15 02:44:00,
2013-03-14 22:49:00,38.8,30.6,30.18,WNW,303,0.0,1.0,72,0.00,,,0.00,0.0,meteohub,2013-03-15 02:49:00,
2013-03-14 22:54:00,38.7,30.7,30.18,WNW,303,0.0,1.0,73,0.00,,,0.00,0.0,meteohub,2013-03-15 02:54:00,
2013-03-14 22:59:00,38.7,31.1,30.18,WNW,303,0.0,1.0,74,0.00,,,0.00,0.0,meteohub,2013-03-15 02:59:00,
2013-03-14 23:04:00,38.3,30.7,30.18,WNW,303,0.0,0.0,74,0.00,,,0.00,0.0,meteohub,2013-03-15 03:04:00,
2013-03-14 23:09:00,37.9,30.7,30.18,WNW,303,0.0,0.0,75,0.00,,,0.00,0.0,meteohub,2013-03-15 03:09:00,
2013-03-14 23:14:00,37.9,31.5,30.19,WNW,303,0.0,0.0,77,0.00,,,0.00,0.0,meteohub,2013-03-15 03:14:00,
2013-03-14 23:19:00,38.1,31.8,30.19,WNW,303,0.0,0.0,78,0.00,,,0.00,0.0,meteohub,2013-03-15 03:19:00,
2013-03-14 23:24:00,37.9,31.6,30.19,WNW,303,0.0,0.0,78,0.00,,,0.00,0.0,meteohub,2013-03-15 03:24:00,
2013-03-14 23:29:00,37.8,31.8,30.19,WNW,303,0.0,0.0,79,0.00,,,0.00,0.0,meteohub,2013-03-15 03:29:00,
2013-03-14 23:34:00,37.8,32.2,30.19,WNW,303,0.0,0.0,80,0.00,,,0.00,0.0,meteohub,2013-03-15 03:34:00,
2013-03-14 23:39:00,37.8,32.2,30.19,WNW,303,0.0,0.0,80,0.00,,,0.00,0.0,meteohub,2013-03-15 03:39:00,
2013-03-14 23:44:00,37.6,32.0,30.19,WNW,303,0.0,0.0,80,0.00,,,0.00,0.0,meteohub,2013-03-15 03:44:00,
2013-03-14 23:49:00,37.2,32.0,30.20,WNW,303,0.0,0.0,81,0.00,,,0.00,0.0,meteohub,2013-03-15 03:49:00,
2013-03-14 23:54:00,37.6,32.5,30.20,WNW,303,0.0,0.0,82,0.00,,,0.00,0.0,meteohub,2013-03-15 03:54:00,
2013-03-14 23:59:00,37.4,32.4,30.20,WNW,303,0.0,0.0,82,0.00,,,0.00,0.0,meteohub,2013-03-15 03:59:00,